GFSNGP_925_temp_234.txt.gz
Temp
26 27 27 27 27 27 27 27 26 26 26 27 27 28 28 28 28 29 29 28 27 26 26 25 25 25 25 24 23 22 21 20 19 17 16 16 16 15 14 13 13 13 12 11
23 25 25 25 26 26 26 26 27 27 27 28 28 29 28 28 29 29 29 29 29 28 28 27 26 25 25 24 23 22 20 20 19 17 16 16 15 14 13 12 12 11 11 11
20 23 23 20 23 24 25 26 26 25 26 27 27 27 28 28 28 28 28 28 27 27 26 25 25 24 24 23 23 22 20 19 17 16 15 14 13 13 12 12 11 11 11 10
18 18 16 22 25 25 25 25 25 26 26 26 26 27 27 28 28 27 28 27 26 26 25 25 24 23 23 22 22 19 18 17 17 15 13 12 12 12 12 12 11 11 10 8
15 16 18 20 22 22 23 24 26 26 27 27 28 27 27 28 27 27 26 26 25 24 24 23 22 22 21 20 20 18 17 16 15 13 13 12 12 12 12 11 10 9 8 7
12 14 16 21 24 25 23 20 24 25 25 25 26 24 25 26 25 26 26 25 24 24 22 21 20 20 19 18 18 16 16 16 15 13 13 13 12 12 11 10 9 8 8 7
15 14 16 21 23 24 20 23 25 26 26 25 24 25 25 25 25 24 23 23 22 21 21 20 18 18 17 17 16 15 15 15 14 14 13 13 12 11 10 9 8 8 7 6
15 14 15 21 22 20 22 23 24 24 24 23 23 24 24 25 23 22 21 20 19 19 19 18 17 16 15 14 14 14 14 14 12 12 11 11 10 10 9 8 7 6 6 6
16 17 19 22 22 23 21 19 19 20 20 21 21 22 21 22 21 21 20 20 18 19 17 16 15 15 12 11 12 12 11 11 10 9 9 8 8 8 8 7 6 6 6 5
17 19 20 21 17 15 15 15 16 17 16 16 16 17 19 18 19 19 19 18 18 17 15 15 15 14 11 10 9 9 8 8 7 7 6 6 6 6 6 5 5 6 5 4
16 17 15 16 13 13 12 12 13 13 12 12 13 12 13 13 13 15 15 16 16 16 14 14 13 11 10 9 9 8 7 7 7 7 6 6 5 5 5 4 4 4 4 3
11 11 11 11 13 13 13 13 12 11 11 11 10 11 11 10 11 12 12 12 14 15 14 12 10 9 8 8 8 8 7 7 7 6 5 5 4 4 3 3 2 3 2 2
15 15 14 14 15 15 14 13 12 11 12 12 12 12 13 14 14 14 14 14 14 11 10 10 8 7 5 5 5 6 6 5 5 4 3 3 3 3 2 2 2 1 1 1
14 14 14 15 15 15 15 15 15 15 15 14 14 14 13 13 13 13 12 11 9 6 6 5 4 4 3 3 3 3 3 3 3 2 2 2 2 2 2 1 1 1 1 1
15 15 15 15 15 15 15 15 14 14 14 12 11 10 10 11 9 8 7 7 6 6 6 5 4 3 2 2 2 2 3 2 1 1 1 1 1 1 1 1 1 1 1 1
15 15 14 14 14 14 14 14 13 13 12 10 8 8 8 7 6 5 3 3 4 2 1 0 0 0 0 0 0 1 1 1 1 0 0 -0 0 0 1 1 1 1 1 1
12 12 12 13 12 13 13 11 11 10 7 6 5 5 4 3 2 1 0 -0 -0 -1 -1 -1 -1 -1 -1 -1 -0 0 0 0 -0 -0 -0 -0 -0 -0 0 0 -0 0 0 1
12 12 12 11 11 9 6 5 4 3 3 1 1 1 0 0 0 -0 -0 -1 -1 -1 -1 -1 -1 -1 -1 -1 -1 -0 -0 -0 -0 -0 -0 -0 -0 -0 -0 -0 -0 -0 -0 0
7 6 4 4 4 3 2 1 1 0 0 0 0 -0 -0 -0 -0 -1 -1 -1 -1 -1 -1 -1 -1 -1 -1 -0 -0 -0 -0 -0 -0 -0 -0 -1 -0 -1 -0 -0 -0 -0 -0 0
3 2 1 1 0 1 0 0 0 -0 -0 -0 -0 -1 -1 -1 -1 -1 -1 -1 -1 -0 -0 -0 -0 0 1 1 0 0 0 0 -0 -0 -0 -0 -1 -1 -1 -0 -0 -0 -0 -0
1 1 1 0 0 -0 -0 -1 -1 -1 -1 -1 -1 -1 -1 -2 -2 -1 0 1 -1 -1 -1 -0 -0 -0 -1 -1 -1 -0 -1 -1 -1 -1 -1 -1 -1 -2 -1 -1 -0 -1 -1 -1
2 1 0 0 1 -0 -0 -1 -1 -2 -2 -2 -2 -2 -1 -1 -1 -0 -1 -1 -2 -2 -2 -1 -2 -3 -3 -2 -2 -1 -2 -1 -1 -1 -2 -1 -1 -2 -2 -1 -1 -1 -2 -2
3 2 1 1 1 0 -1 -2 -2 -2 -3 -3 -4 -3 -2 -1 -1 -0 -0 -3 -3 -4 -3 -3 -4 -4 -4 -4 -3 -3 -3 -2 -2 -2 -2 -2 -3 -3 -2 -2 -2 -2 -3 -3
3 2 2 2 1 2 1 0 -1 -2 -3 -3 -3 -3 -3 -2 -3 -3 -3 -4 -4 -5 -4 -6 -6 -6 -6 -5 -5 -4 -3 -3 -3 -3 -3 -3 -3 -3 -2 -3 -3 -4 -4 -5
1 2 2 2 2 1 1 0 0 0 -0 -1 -2 -3 -4 -4 -5 -5 -6 -6 -6 -6 -6 -6 -6 -6 -6 -5 -4 -4 -4 -5 -5 -4 -4 -5 -5 -5 -5 -5 -6 -6 -7 -7
2 2 1 1 1 1 1 0 0 -2 -1 -2 -4 -4 -5 -6 -6 -7 -7 -7 -7 -7 -7 -7 -7 -7 -6 -6 -6 -7 -7 -6 -7 -7 -7 -8 -8 -8 -8 -9 -9 -9 -9 -10
1 1 1 1 -0 -2 -2 -3 -2 -3 -4 -5 -5 -6 -6 -7 -7 -7 -8 -8 -8 -8 -8 -8 -8 -8 -8 -8 -8 -8 -9 -9 -9 -9 -10 -10 -10 -11 -11 -11 -11 -11 -11 -11

GFSNGP_925_temp_237.txt.gz
Temp
22 23 23 22 23 23 22 23 22 23 24 24 23 24 24 23 23 25 24 24 22 22 22 21 21 23 24 24 24 22 21 21 20 19 19 18 17 16 16 15 15 14 13 12
21 22 22 21 22 22 23 23 23 23 23 25 26 25 24 26 25 25 25 25 25 23 23 23 23 22 23 24 24 23 22 21 20 18 18 17 16 16 15 14 13 13 12 11
19 21 19 19 20 22 22 23 23 22 23 24 24 25 25 25 25 25 24 24 25 24 22 21 23 23 22 23 23 22 21 20 18 17 17 16 15 15 14 13 12 12 11 10
16 16 15 20 23 22 20 21 21 22 23 24 24 24 24 24 24 25 25 24 22 22 20 21 22 22 22 22 21 21 20 19 17 16 16 15 14 13 13 12 11 11 9 9
12 13 18 19 21 20 20 21 22 21 22 22 23 23 22 23 22 22 21 21 20 20 21 21 21 21 21 20 20 19 18 17 16 15 14 13 12 12 12 11 10 9 9 9
12 13 17 20 21 21 21 17 20 21 21 21 20 18 18 21 21 19 19 19 18 19 19 20 19 20 19 18 18 17 17 16 15 14 13 12 12 12 11 10 10 9 9 8
16 15 17 19 21 21 18 18 17 18 16 16 17 18 19 19 21 19 17 17 19 18 17 18 18 18 16 16 16 16 16 15 14 13 13 12 12 11 10 10 9 9 8 7
16 15 15 19 19 18 16 15 14 14 14 14 14 14 15 15 17 17 16 17 18 17 17 17 17 17 14 14 15 15 15 14 13 13 12 12 11 10 10 9 8 7 7 6
16 16 18 18 13 13 14 14 14 13 13 13 13 13 13 13 12 13 13 15 16 16 15 15 15 15 11 11 13 13 13 11 10 10 10 10 9 9 8 8 7 6 6 5
14 16 16 13 13 13 13 13 13 13 13 13 13 12 12 12 11 11 11 11 11 11 13 13 13 12 11 10 10 9 8 8 9 9 8 8 8 8 7 7 6 6 5 4
13 12 13 13 12 12 13 12 13 12 12 12 11 11 11 10 10 10 10 10 10 10 10 9 10 10 9 9 10 8 7 7 7 7 7 7 7 7 6 5 5 4 4 4
10 11 11 11 12 12 12 12 12 11 11 10 10 10 10 9 9 9 10 11 10 11 10 9 9 8 8 8 8 7 7 6 6 6 6 5 5 5 5 4 4 3 3 3
12 12 11 11 12 13 12 12 12 11 10 10 10 10 11 10 11 11 12 11 8 6 8 8 6 5 5 6 6 7 6 5 5 5 4 4 4 3 3 3 3 2 2 2
12 11 11 12 11 12 12 13 13 13 13 12 10 10 10 9 9 7 6 6 6 5 4 4 3 2 2 3 3 2 2 3 3 2 2 2 2 2 2 1 1 2 1 1
12 12 11 12 12 12 12 12 11 11 11 8 7 7 7 6 4 3 4 6 4 3 2 1 1 0 0 1 1 1 1 1 0 0 0 1 1 1 1 1 1 1 1 1
11 11 11 11 11 11 11 9 8 8 5 4 4 3 3 2 1 1 1 1 1 -0 -1 -0 -1 -1 -0 -0 -0 -0 -0 -0 -0 -0 0 0 0 -0 -0 0 1 0 0 1
10 9 9 7 7 5 4 4 4 3 2 1 1 1 1 1 0 -0 -1 -1 -1 -1 -1 -1 -1 -1 -1 -1 -1 -1 -0 -1 -1 -0 -0 -0 -0 -0 -0 -0 -0 -0 0 0
6 4 4 5 4 4 3 2 2 1 1 0 0 0 -0 -0 -0 -1 -1 -1 -1 -1 -1 -1 -1 -1 -1 -1 -1 -1 -0 -1 -1 -1 -0 -1 -1 -1 -1 -0 -0 -0 -0 0
4 3 3 3 3 2 1 1 0 0 -0 -1 -1 -1 -2 -2 -2 -2 -2 -1 -1 -1 -1 -1 -1 -1 -0 -0 -0 -0 -0 0 -0 -0 -0 -0 -1 -1 -1 -1 -0 -0 -0 -0
2 1 1 0 0 0 0 -0 -1 -1 -1 -1 -1 -2 -2 -2 -1 -1 -1 -1 -2 -1 -1 -1 -1 -1 -1 -0 -0 -1 -1 -0 -0 -0 -0 -1 -1 -1 -2 -1 -1 -0 -0 -0
0 -0 -1 -1 -1 -2 -2 -2 -2 -2 -2 -2 -2 -2 -2 -2 -1 -2 -2 -1 -3 -3 -2 -2 -2 -3 -3 -2 -2 -2 -2 -1 -2 -1 -1 -1 -1 -1 -1 -2 -2 -1 -1 -1
0 0 -0 -0 -1 -1 -1 -2 -2 -2 -3 -3 -3 -2 -1 -2 -1 -3 -4 -3 -5 -4 -3 -4 -4 -4 -4 -4 -4 -3 -3 -3 -2 -2 -2 -2 -2 -3 -3 -2 -2 -1 -1 -1
1 0 -0 -2 -2 -2 -2 -2 -3 -3 -3 -3 -3 -3 -3 -3 -4 -5 -5 -5 -5 -5 -5 -6 -6 -6 -5 -5 -5 -5 -5 -4 -3 -3 -3 -2 -3 -4 -4 -3 -3 -2 -2 -3
1 1 0 -0 -1 -1 -2 -2 -2 -2 -3 -3 -4 -4 -4 -5 -6 -6 -6 -6 -6 -6 -6 -7 -7 -6 -6 -6 -5 -5 -5 -4 -4 -4 -4 -3 -4 -4 -4 -4 -5 -5 -4 -5
2 1 1 0 -0 -2 -0 -0 -1 -2 -3 -4 -5 -5 -6 -6 -7 -7 -7 -7 -7 -7 -7 -7 -7 -7 -7 -6 -6 -6 -6 -6 -6 -6 -6 -7 -7 -7 -7 -7 -7 -7 -7 -7
0 0 -0 -0 -1 -2 -2 -2 -4 -4 -5 -6 -6 -7 -7 -7 -7 -8 -8 -8 -8 -8 -8 -8 -8 -8 -8 -8 -8 -8 -8 -9 -8 -9 -9 -9 -9 -9 -9 -9 -9 -9 -9 -9
0 1 -0 -2 -2 -3 -3 -4 -6 -6 -6 -6 -7 -7 -8 -8 -8 -8 -9 -9 -9 -9 -9 -10 -10 -10 -10 -10 -10 -10 -10 -11 -11 -11 -11 -11 -11 -11 -11 -11 -11 -11 -11 -11

GFSNGP_925_temp_240.txt.gz
Temp
20 22 23 22 21 21 20 19 19 21 20 21 21 21 22 22 23 23 23 22 21 21 19 18 20 20 20 20 19 19 18 17 19 20 19 18 17 16 16 16 16 15 14 14
21 21 21 20 20 20 20 21 20 22 21 22 23 23 23 23 23 23 23 22 22 21 20 20 21 21 20 19 19 19 18 18 19 18 19 18 17 16 16 15 15 14 13 13
18 19 19 19 19 20 22 21 21 20 21 21 21 22 22 22 22 22 23 23 23 21 20 20 22 22 21 21 22 20 19 19 18 18 17 16 15 15 15 14 14 13 12 12
13 15 16 20 22 22 20 20 20 19 20 21 20 20 21 20 19 19 19 20 20 19 19 21 22 22 22 21 21 20 19 19 19 17 15 14 14 14 13 12 12 12 11 11
12 11 16 19 19 20 19 19 19 18 19 19 20 19 20 16 16 17 17 16 16 16 17 17 18 18 20 20 21 21 21 20 19 16 15 13 12 12 11 11 10 10 10 9
11 13 15 20 20 20 19 17 17 16 15 16 16 14 13 14 14 14 15 16 15 16 17 17 17 18 18 16 16 17 18 19 17 15 14 12 12 11 11 10 10 10 9 9
14 13 14 18 20 21 17 17 14 14 14 14 14 13 13 13 13 12 13 12 13 13 14 15 16 16 15 14 14 14 15 15 14 13 13 12 11 10 10 9 9 9 8 7
13 14 15 18 19 18 15 13 13 13 13 13 13 13 14 13 13 12 11 11 12 12 13 14 14 15 13 12 12 13 13 13 12 12 11 10 10 9 9 9 8 7 7 7
15 15 16 13 13 13 13 13 13 13 13 13 13 13 12 12 12 12 12 12 12 12 12 12 13 13 12 11 12 13 13 11 11 11 10 9 9 8 7 8 7 6 7 6
17 17 15 12 12 12 12 12 13 12 12 12 12 12 11 11 10 10 11 10 10 11 11 11 12 12 12 11 12 12 10 8 7 7 7 7 8 7 7 6 6 5 5 5
15 13 13 12 11 10 10 10 11 11 11 11 11 11 10 10 9 9 9 10 10 10 10 10 11 11 11 10 10 9 7 7 6 6 6 5 5 5 5 5 5 5 4 4
10 10 10 11 10 9 10 10 10 11 11 10 9 9 9 9 8 9 9 10 10 10 9 9 7 6 6 7 7 7 6 6 5 5 5 5 4 4 4 4 4 3 3 3
10 10 10 10 10 10 11 11 10 10 9 9 9 8 9 9 9 7 5 5 5 3 4 3 3 2 2 3 4 4 3 4 3 4 3 3 3 3 3 3 3 2 2 2
11 10 10 11 11 12 11 11 12 12 10 9 9 8 7 5 4 3 3 3 2 2 2 1 1 0 1 1 1 1 1 1 1 1 0 0 0 0 1 1 1 2 2 2
11 11 11 11 11 11 10 10 9 7 5 4 3 3 2 1 1 1 1 1 1 1 0 -0 -1 -1 -0 -0 -0 -0 -0 -0 -0 -0 -0 -0 -0 -0 -0 0 0 1 1 1
10 9 8 7 6 5 5 5 4 3 2 2 1 1 1 1 0 0 -0 0 -0 -1 -1 -1 -2 -2 -1 -1 -0 -0 -0 -0 -0 -1 -1 -1 -1 -1 -0 -0 -0 0 0 0
9 7 6 5 4 4 3 3 2 2 2 1 1 0 1 -0 -0 -1 -1 -2 -1 -2 -2 -2 -2 -1 -1 -1 -1 -1 -1 -1 -1 -1 -1 -1 -1 -1 -1 -0 -0 -0 -0 -0
4 4 4 4 4 3 2 2 1 1 1 -0 -1 -1 -1 -1 -1 -2 -2 -2 -1 -1 -2 -2 -1 -1 -1 -1 -1 -1 -1 -1 -0 -0 -1 -1 -1 -1 -1 -1 -1 -1 -0 -0
4 3 3 3 3 2 1 0 -0 -1 -1 -2 -2 -3 -3 -3 -3 -3 -3 -2 -2 -2 -2 -1 -2 -2 -1 -1 -0 -1 -1 -0 -0 -0 -0 -0 -0 -1 -2 -2 -2 -1 -0 -0
1 1 0 -0 -0 -0 -1 -1 -1 -2 -2 -2 -2 -3 -3 -3 -3 -2 -3 -4 -5 -4 -3 -3 -3 -3 -3 -2 -2 -2 -2 -1 -1 -1 -1 -1 -1 -1 -1 -1 -2 -2 -1 -0
0 -0 -1 -1 -1 -2 -2 -1 -2 -3 -3 -3 -2 -2 -4 -4 -3 -3 -2 -4 -5 -5 -4 -4 -4 -4 -5 -4 -4 -4 -4 -3 -3 -3 -2 -2 -2 -2 -2 -2 -2 -2 -2 -1
-0 -1 -1 -1 -2 -2 -3 -3 -3 -3 -3 -3 -3 -3 -4 -5 -5 -5 -6 -6 -6 -5 -5 -6 -6 -6 -6 -6 -5 -5 -5 -5 -4 -4 -3 -3 -3 -3 -4 -4 -4 -3 -2 -2
-0 -0 -1 -3 -3 -3 -3 -3 -3 -3 -4 -4 -4 -5 -6 -6 -6 -7 -7 -7 -7 -7 -7 -7 -7 -7 -6 -6 -6 -6 -6 -6 -6 -5 -4 -4 -4 -4 -5 -4 -4 -3 -3 -2
0 -1 -2 -2 -2 -3 -3 -4 -4 -4 -4 -5 -5 -5 -6 -6 -7 -7 -7 -7 -8 -8 -8 -8 -8 -7 -7 -7 -7 -7 -6 -6 -6 -6 -6 -5 -6 -6 -6 -6 -6 -6 -6 -5
0 -1 -2 -2 -2 -3 -2 -3 -4 -5 -5 -6 -7 -7 -7 -8 -8 -8 -8 -8 -8 -9 -9 -9 -8 -8 -8 -9 -8 -9 -9 -9 -8 -8 -8 -8 -9 -8 -8 -8 -8 -8 -8 -7
0 -1 -1 -1 -2 -2 -3 -4 -6 -6 -7 -8 -8 -8 -8 -8 -8 -8 -9 -9 -9 -9 -10 -10 -10 -10 -10 -10 -10 -10 -10 -10 -10 -10 -10 -10 -10 -10 -10 -10 -10 -10 -10 -10
-1 -2 -3 -4 -4 -3 -4 -5 -6 -7 -7 -7 -8 -8 -8 -9 -9 -9 -10 -10 -10 -10 -11 -11 -11 -11 -11 -11 -12 -12 -12 -12 -12 -12 -12 -12 -12 -12 -12 -12 -12 -12 -12 -12

GFSNGP_925_temp_243.txt.gz
Temp
20 22 23 23 22 20 20 19 19 20 19 20 20 20 20 19 19 20 20 21 20 21 20 18 18 20 21 22 22 20 19 18 18 20 20 20 19 19 18 17 16 15 15 14
19 20 20 21 19 19 19 19 19 19 19 20 19 19 19 19 19 19 19 20 20 20 20 19 19 19 21 21 22 20 18 17 18 18 19 19 18 18 16 16 15 14 14 13
18 19 20 17 18 17 18 19 20 19 21 20 19 19 19 16 15 16 17 17 16 16 16 16 17 18 18 19 20 20 18 18 17 18 18 18 17 16 15 15 14 13 12 12
14 16 17 20 19 21 19 19 19 20 19 18 18 18 14 13 14 15 14 14 14 14 14 14 15 16 17 17 17 16 16 16 16 16 16 16 15 14 13 13 12 12 11 11
14 13 15 18 20 19 20 19 19 19 17 17 17 18 15 13 12 12 12 12 12 13 14 14 15 17 18 17 16 16 15 15 15 16 16 15 14 13 12 11 10 10 10 9
11 12 15 18 20 20 19 18 16 16 15 15 15 16 14 13 12 12 12 12 12 13 14 15 15 17 17 16 16 14 14 14 15 14 13 13 12 11 10 10 9 9 8 8
10 11 12 17 18 19 18 19 14 14 14 13 14 13 14 13 12 12 12 12 12 13 13 12 13 14 14 13 12 13 14 15 15 16 15 14 12 11 10 9 8 6 6 6
12 11 15 17 18 18 16 12 12 12 13 13 13 13 12 12 12 11 11 11 11 11 11 12 13 14 12 12 13 13 14 13 13 12 11 11 11 10 9 8 6 6 6 5
14 14 14 13 14 11 12 12 12 12 12 12 12 12 12 12 12 11 11 10 10 10 10 11 11 12 12 13 13 12 11 11 10 10 10 9 8 7 6 5 4 4 4 4
16 15 12 10 10 10 10 11 11 12 11 11 11 11 11 11 10 10 9 9 10 10 9 9 10 8 7 8 8 8 8 8 7 7 7 6 6 6 6 5 5 5 4 4
14 11 11 10 9 9 10 10 11 11 11 10 10 10 10 10 9 8 8 8 8 7 6 5 5 5 5 6 7 6 6 5 5 4 4 4 4 4 4 4 4 3 3 3
14 10 11 10 9 9 9 10 10 10 10 10 9 9 9 9 7 6 5 4 4 3 2 2 2 1 1 3 4 4 4 4 4 4 3 3 2 2 2 3 3 2 2 2
10 9 10 9 9 8 8 8 8 9 9 9 10 9 8 6 4 3 2 2 2 1 1 1 1 1 1 2 2 1 0 0 0 0 0 0 0 -0 0 1 0 1 2 1
10 10 9 9 9 9 9 9 10 8 6 6 6 4 3 2 2 2 1 2 1 1 1 0 -0 -1 -0 0 1 1 0 0 -0 -0 -0 0 0 -0 0 -0 -0 1 1 1
9 9 10 10 9 8 8 8 6 5 3 2 2 1 1 1 1 1 1 1 0 -0 -1 -1 -1 -1 -1 -1 -1 -0 -1 -1 -0 -1 -1 -1 -1 -1 -1 -1 -0 -0 0 1
7 7 6 6 5 5 5 4 3 2 1 1 1 1 1 0 -0 -1 -1 -1 -1 -2 -2 -3 -3 -3 -2 -2 -2 -2 -2 -2 -1 -1 -1 -1 -1 -1 -1 -1 -1 -1 -0 -0
6 5 4 4 4 4 3 3 3 2 1 1 1 0 -0 -1 -1 -2 -2 -3 -3 -3 -3 -3 -3 -3 -2 -2 -3 -2 -1 -1 -1 -1 -1 -1 -1 -1 -1 -1 -1 -1 -1 -0
4 5 5 5 4 3 2 1 1 0 -0 -1 -1 -1 -2 -1 -1 -2 -3 -3 -2 -3 -4 -3 -3 -3 -2 -2 -1 -1 -1 -0 -0 -0 -0 -0 -1 -1 -2 -2 -2 -2 -1 -1
4 4 4 3 2 1 0 -0 -1 -1 -2 -2 -3 -4 -4 -4 -4 -4 -4 -4 -4 -3 -4 -4 -3 -3 -3 -3 -3 -3 -3 -2 -1 -1 -1 -1 -1 -1 -2 -2 -3 -3 -2 -1
1 1 0 0 -0 -0 -1 -1 -2 -2 -3 -3 -4 -4 -6 -6 -4 -4 -5 -6 -6 -5 -5 -5 -4 -5 -5 -4 -4 -4 -4 -4 -4 -3 -3 -3 -2 -2 -2 -2 -3 -2 -3 -2
0 -0 -1 -1 -2 -2 -2 -2 -2 -3 -3 -3 -4 -6 -6 -5 -4 -3 -4 -5 -6 -6 -6 -6 -6 -6 -6 -6 -6 -6 -6 -6 -5 -5 -4 -4 -4 -4 -4 -3 -4 -4 -4 -3
-0 -1 -1 -2 -2 -3 -2 -3 -4 -4 -4 -4 -4 -5 -5 -5 -6 -6 -7 -7 -7 -7 -7 -7 -7 -7 -7 -6 -7 -6 -6 -7 -7 -7 -6 -5 -4 -4 -5 -5 -4 -4 -4 -4
-0 -1 -1 -2 -2 -3 -4 -4 -4 -4 -4 -4 -5 -6 -6 -7 -8 -8 -9 -8 -8 -8 -8 -8 -8 -8 -7 -7 -7 -8 -8 -7 -7 -7 -7 -7 -6 -7 -7 -6 -6 -6 -5 -4
-1 -2 -2 -3 -3 -4 -4 -6 -5 -5 -5 -6 -7 -7 -7 -7 -8 -8 -8 -8 -9 -9 -9 -9 -9 -9 -9 -9 -9 -9 -10 -9 -9 -9 -9 -9 -9 -8 -9 -8 -8 -8 -8 -7
-1 -2 -3 -3 -3 -3 -4 -5 -5 -6 -7 -7 -7 -8 -8 -8 -8 -9 -9 -9 -9 -9 -10 -10 -10 -10 -10 -11 -11 -11 -11 -11 -11 -11 -11 -11 -11 -10 -10 -10 -10 -10 -9 -9
-1 -2 -3 -2 -2 -2 -4 -5 -6 -7 -7 -8 -8 -8 -8 -9 -9 -9 -10 -10 -10 -10 -11 -11 -11 -11 -11 -12 -12 -13 -13 -13 -12 -12 -12 -12 -12 -12 -12 -12 -12 -12 -12 -12
-2 -2 -3 -4 -4 -4 -4 -5 -6 -7 -7 -8 -9 -9 -9 -9 -10 -10 -10 -11 -11 -11 -12 -12 -12 -12 -12 -13 -13 -13 -13 -14 -14 -14 -14 -14 -14 -14 -13 -13 -13 -13 -13 -13

GFSNGP_925_temp_246.txt.gz
Temp
18 20 21 22 22 19 20 22 20 21 19 20 20 20 21 20 18 17 17 17 16 16 15 16 16 16 18 19 19 18 18 18 19 18 17 17 18 19 19 17 17 17 15 15
19 19 20 21 21 19 19 18 20 19 18 19 20 19 19 18 17 16 16 15 15 15 14 14 14 13 15 16 17 18 18 17 17 17 16 16 17 16 16 16 16 15 15 14
18 19 19 18 19 17 18 18 19 19 19 19 20 19 18 16 14 14 14 14 13 13 13 13 13 13 14 15 16 16 16 16 16 16 15 15 16 16 16 16 15 14 14 13
18 16 16 19 19 20 19 18 19 20 19 19 19 15 13 13 13 13 12 12 12 11 12 13 13 14 15 15 15 15 15 15 16 16 15 14 14 14 14 14 13 13 12 12
15 14 16 18 19 18 19 18 18 19 18 17 16 14 13 13 12 13 12 11 11 12 12 12 12 13 14 15 15 14 13 13 14 14 14 14 13 13 12 11 11 11 10 10
10 15 18 19 19 18 20 18 17 17 16 15 15 14 13 13 13 12 11 11 11 11 11 12 12 13 13 12 13 12 12 13 13 13 13 12 12 11 10 10 10 9 8 8
10 12 12 15 18 19 18 18 15 15 14 13 14 13 12 12 12 12 11 11 11 11 10 11 11 11 11 11 9 10 11 11 12 12 11 11 11 11 10 9 9 8 7 6
11 11 14 16 18 18 15 12 13 12 12 12 11 12 12 12 11 11 10 10 10 9 10 10 9 9 8 7 8 9 9 9 9 9 9 9 9 8 8 7 6 5 5 5
15 14 14 11 13 11 12 12 11 11 11 11 11 11 11 11 11 10 10 10 9 9 8 6 5 4 4 4 6 7 7 6 6 7 7 7 7 5 5 5 4 3 2 2
16 13 10 10 9 10 10 10 10 10 10 11 11 11 10 10 10 9 8 8 7 6 4 2 2 2 2 3 5 5 5 5 4 4 3 4 3 3 3 3 2 2 1 0
12 10 10 10 9 9 9 10 10 11 11 11 10 10 10 10 9 7 5 4 3 2 2 2 1 1 1 2 3 3 2 2 3 3 2 2 2 2 2 2 2 2 2 2
15 11 13 10 8 9 9 10 10 10 10 10 10 10 9 6 4 3 3 2 2 2 2 1 1 1 1 1 1 1 1 1 1 1 1 1 1 1 2 2 2 1 1 1
10 10 10 9 8 9 9 9 9 9 9 9 6 7 6 3 2 2 2 2 2 1 1 0 -0 -1 -1 -0 0 0 -0 -0 0 0 -0 -0 -0 -1 -1 -0 1 1 1 1
9 10 9 9 9 9 9 9 8 6 4 4 3 2 1 2 2 2 2 1 1 0 -0 -1 -2 -2 -2 -2 -1 -1 -1 -1 -2 -1 -0 -1 -1 -2 -2 -2 -2 -1 0 -0
9 9 9 8 8 7 7 6 4 3 2 2 2 2 2 1 1 0 -0 -0 -1 -2 -3 -3 -3 -3 -3 -2 -2 -2 -2 -2 -2 -2 -2 -2 -2 -2 -2 -1 -1 -1 -0 0
6 6 5 5 4 4 4 3 2 2 2 2 1 1 0 -0 -1 -2 -2 -3 -2 -3 -4 -4 -4 -4 -4 -3 -3 -3 -2 -3 -3 -3 -2 -3 -3 -2 -1 -1 -1 -1 -1 -1
6 4 4 4 4 3 4 3 3 2 1 1 0 -0 -1 -1 -2 -3 -3 -4 -4 -4 -4 -4 -5 -4 -3 -3 -3 -3 -2 -1 -1 -1 -1 -1 -1 -3 -3 -3 -3 -3 -2 -2
4 4 3 4 3 2 2 1 0 -0 -0 -1 -1 -1 -2 -2 -2 -3 -4 -4 -4 -5 -4 -4 -4 -4 -4 -4 -4 -4 -3 -3 -3 -2 -1 -1 -2 -2 -3 -3 -4 -4 -4 -2
4 4 4 3 2 1 0 -0 -1 -2 -2 -2 -4 -4 -5 -5 -4 -5 -5 -5 -6 -5 -6 -6 -5 -5 -5 -5 -5 -5 -5 -5 -5 -4 -4 -3 -3 -3 -3 -3 -3 -4 -5 -4
1 1 1 0 -0 -0 -1 -2 -2 -4 -4 -6 -6 -5 -5 -5 -4 -5 -5 -7 -7 -7 -7 -7 -7 -7 -6 -6 -6 -6 -7 -7 -7 -7 -6 -6 -5 -4 -4 -4 -4 -4 -5 -5
0 -0 -1 -1 -2 -2 -2 -3 -4 -5 -5 -5 -5 -6 -7 -6 -5 -5 -6 -7 -8 -8 -8 -8 -8 -8 -8 -7 -7 -7 -8 -8 -8 -8 -8 -7 -7 -5 -5 -6 -5 -5 -5 -5
-0 -1 -1 -2 -2 -3 -3 -3 -4 -5 -5 -6 -7 -6 -6 -7 -7 -8 -8 -9 -9 -8 -9 -9 -9 -9 -8 -8 -8 -9 -9 -9 -9 -9 -8 -8 -8 -7 -7 -7 -7 -6 -7 -6
-1 -1 -1 -2 -2 -4 -5 -5 -5 -5 -6 -6 -6 -6 -7 -8 -8 -9 -9 -10 -9 -9 -9 -10 -10 -9 -9 -9 -10 -10 -10 -11 -11 -11 -11 -10 -10 -10 -10 -10 -10 -9 -10 -9
-1 -1 -2 -3 -4 -5 -6 -7 -7 -6 -6 -7 -7 -7 -7 -8 -9 -9 -9 -10 -10 -10 -10 -11 -11 -11 -10 -11 -11 -12 -12 -12 -12 -12 -12 -12 -12 -11 -11 -11 -11 -11 -11 -10
-2 -3 -3 -4 -4 -5 -5 -6 -7 -7 -7 -8 -8 -8 -8 -9 -9 -10 -10 -10 -10 -11 -11 -11 -11 -11 -12 -12 -13 -13 -13 -14 -14 -13 -13 -13 -13 -13 -13 -13 -13 -13 -12 -12
-2 -3 -3 -3 -4 -5 -6 -6 -7 -8 -8 -9 -9 -9 -9 -10 -10 -10 -10 -11 -11 -12 -12 -12 -12 -12 -12 -13 -13 -14 -14 -14 -14 -14 -14 -14 -14 -14 -14 -14 -14 -14 -14 -14
-3 -3 -4 -5 -4 -4 -5 -6 -7 -8 -8 -8 -10 -10 -10 -10 -10 -11 -11 -12 -12 -12 -13 -13 -13 -13 -13 -13 -14 -14 -14 -14 -15 -15 -15 -15 -15 -15 -15 -15 -15 -15 -15 -15

GFSNGP_925_temp_249.txt.gz
Temp
22 22 21 22 23 22 22 23 23 24 22 24 24 24 22 21 20 19 18 17 17 17 16 16 15 15 15 15 15 15 15 16 15 15 16 16 17 17 16 15 15 15 15 15
20 20 21 22 22 22 23 22 22 23 23 23 22 22 21 20 18 18 17 16 16 16 15 15 14 13 14 14 13 14 14 14 14 14 14 15 14 14 14 14 14 14 14 14
19 19 19 18 21 20 21 21 23 22 24 20 21 20 20 18 17 16 16 15 15 14 14 13 13 12 13 13 13 13 13 13 12 12 13 13 13 13 13 13 13 13 13 13
17 17 17 21 20 22 22 20 20 21 20 21 21 16 16 16 17 16 15 14 13 13 13 12 12 12 12 12 12 11 11 12 11 11 12 12 12 11 11 11 11 11 11 11
13 16 19 21 18 19 20 22 20 21 20 18 16 16 15 14 15 14 14 13 12 12 12 11 11 11 11 11 11 11 10 10 10 10 10 10 10 10 10 10 10 10 9 10
12 14 16 21 21 19 20 20 19 20 18 16 17 20 18 14 14 13 13 12 12 11 11 11 10 10 10 9 9 8 8 8 8 8 8 8 8 8 8 8 8 8 8 8
15 14 16 17 18 19 20 22 18 18 16 16 17 17 14 14 13 13 12 12 11 11 10 8 8 8 8 7 6 6 7 7 7 7 7 6 7 7 6 7 7 6 5 5
13 15 16 16 18 20 19 14 15 15 14 13 13 13 13 13 13 12 12 11 10 9 7 5 5 6 6 5 4 5 6 6 5 5 5 5 5 5 5 5 4 3 3 3
17 17 15 12 14 13 14 15 13 14 13 13 13 12 12 12 12 11 10 9 8 7 4 3 3 2 3 3 3 4 4 4 3 3 3 3 3 3 2 2 1 1 0 1
17 14 13 12 11 11 12 12 12 13 13 13 12 12 11 11 10 9 7 6 5 4 3 2 2 2 2 2 2 2 2 3 3 2 2 2 2 2 2 2 2 2 2 2
15 11 11 11 11 11 11 11 12 12 12 12 12 11 11 10 8 6 4 3 3 3 3 2 2 1 1 1 1 2 1 1 1 1 1 1 1 1 1 1 1 1 1 1
15 12 15 13 11 11 11 12 12 11 11 11 11 11 7 6 5 3 3 3 3 3 1 0 -1 -1 -1 -1 -0 -0 -0 -0 -1 -0 -0 -1 -1 -1 -0 -0 0 0 1 1
14 12 11 11 10 10 11 11 11 11 10 8 6 7 5 3 3 3 3 3 2 1 -0 -1 -2 -2 -2 -2 -1 -1 -1 -2 -2 -2 -2 -2 -2 -2 -1 -0 -0 -0 -0 -0
10 10 9 10 10 10 9 8 6 5 5 5 4 3 3 3 3 2 1 0 -1 -1 -2 -2 -3 -3 -3 -2 -2 -2 -2 -2 -2 -2 -2 -2 -2 -2 -2 -1 -1 -1 -1 -0
9 9 10 8 9 8 6 6 5 4 3 3 2 2 2 1 0 -1 -0 -1 -2 -3 -3 -3 -4 -4 -4 -3 -3 -3 -2 -3 -2 -2 -3 -3 -3 -2 -2 -2 -1 -1 -1 -1
7 7 8 6 6 6 5 4 3 3 2 2 1 1 -0 -1 -2 -2 -3 -3 -3 -4 -4 -4 -4 -5 -5 -4 -4 -3 -3 -2 -2 -1 -1 -1 -2 -2 -3 -3 -2 -2 -2 -2
6 5 5 5 5 4 4 4 3 2 2 1 0 -1 -1 -2 -2 -3 -4 -4 -4 -4 -5 -5 -5 -5 -5 -6 -5 -4 -4 -3 -3 -2 -2 -2 -2 -2 -2 -2 -3 -3 -2 -3
7 6 6 5 4 3 2 2 1 0 -0 -1 -1 -2 -2 -2 -3 -4 -5 -5 -5 -6 -6 -7 -6 -6 -6 -7 -6 -6 -5 -5 -5 -4 -4 -3 -3 -3 -3 -3 -3 -3 -3 -4
5 4 4 3 2 1 1 0 -1 -2 -2 -3 -4 -4 -4 -4 -5 -6 -6 -7 -6 -6 -7 -8 -8 -7 -7 -7 -7 -7 -6 -6 -6 -6 -6 -6 -5 -4 -4 -4 -4 -4 -4 -4
2 2 1 1 0 -0 -1 -2 -3 -4 -5 -5 -5 -4 -4 -4 -5 -6 -7 -8 -8 -8 -8 -8 -8 -8 -8 -8 -8 -7 -7 -7 -7 -7 -7 -7 -7 -6 -5 -5 -6 -6 -5 -4
1 1 -0 -1 -2 -2 -4 -5 -6 -6 -6 -5 -5 -6 -7 -7 -6 -6 -6 -7 -8 -9 -9 -9 -10 -10 -9 -9 -9 -9 -9 -9 -9 -9 -9 -9 -8 -7 -7 -7 -7 -7 -7 -6
0 -1 -1 -2 -2 -3 -4 -4 -6 -7 -6 -7 -7 -7 -8 -8 -8 -9 -9 -8 -9 -10 -10 -10 -11 -10 -10 -10 -11 -11 -11 -11 -11 -11 -11 -10 -10 -10 -10 -10 -9 -10 -10 -9
-0 -1 -1 -2 -3 -4 -5 -6 -7 -7 -7 -7 -7 -8 -7 -8 -8 -7 -8 -11 -11 -10 -11 -12 -11 -11 -10 -12 -13 -13 -13 -13 -13 -13 -12 -12 -12 -12 -12 -12 -12 -11 -11 -11
-1 -1 -3 -4 -5 -5 -5 -6 -7 -8 -7 -8 -8 -8 -8 -9 -10 -10 -11 -11 -11 -11 -12 -12 -11 -11 -11 -13 -14 -14 -14 -14 -14 -14 -14 -14 -14 -13 -13 -13 -13 -13 -13 -13
-2 -3 -4 -4 -3 -4 -5 -6 -7 -7 -8 -8 -9 -10 -10 -10 -10 -12 -12 -12 -11 -11 -12 -12 -12 -12 -12 -14 -14 -15 -15 -15 -16 -15 -15 -15 -15 -15 -14 -14 -15 -15 -14 -14
-2 -3 -3 -3 -4 -5 -6 -6 -7 -8 -9 -10 -11 -11 -10 -11 -11 -11 -11 -12 -12 -12 -12 -13 -13 -13 -13 -14 -15 -15 -16 -16 -16 -16 -16 -16 -16 -15 -15 -15 -15 -15 -15 -15
-3 -4 -4 -5 -5 -5 -6 -6 -7 -8 -9 -9 -11 -12 -11 -11 -11 -12 -12 -12 -13 -13 -13 -14 -14 -14 -14 -14 -14 -15 -16 -16 -15 -16 -17 -16 -16 -16 -16 -16 -16 -16 -16 -16

GFSNGP_925_temp_255.txt.gz
Temp
20 21 23 23 23 25 26 26 26 27 28 29 31 31 30 29 28 27 26 26 25 24 23 22 21 21 20 19 18 18 18 18 17 17 17 16 16 16 16 16 15 15 15 14
15 21 22 22 23 24 25 24 26 28 28 30 31 32 29 28 27 26 26 25 24 23 22 21 20 20 19 18 17 17 17 16 15 15 16 16 15 15 15 14 14 14 14 14
11 17 18 19 23 24 24 25 26 27 29 30 30 30 29 27 27 26 26 24 23 23 21 20 19 18 18 17 16 16 16 15 15 14 14 14 14 13 13 13 13 13 13 13
10 12 12 20 23 24 24 25 26 27 29 30 30 30 28 28 27 27 25 23 22 21 19 18 18 17 17 17 16 15 15 14 14 13 13 13 13 12 12 12 12 11 10 9
9 11 15 18 22 24 24 24 25 26 28 29 28 26 24 26 26 24 23 22 21 19 18 16 16 16 16 15 14 13 13 13 12 12 12 11 11 11 10 10 8 7 6 5
11 10 11 21 24 25 25 22 26 27 27 27 24 22 24 23 23 22 21 20 19 17 16 15 14 14 13 13 12 12 11 11 10 10 10 10 10 9 8 7 5 3 3 3
13 11 14 17 20 26 21 22 26 26 26 25 21 25 23 21 20 20 20 19 17 15 14 13 13 12 11 10 9 9 10 9 8 8 8 8 7 7 6 5 4 3 3 3
12 12 12 19 23 23 25 25 24 24 22 20 24 21 20 20 20 19 18 17 15 13 11 10 10 10 9 8 7 8 7 7 6 5 5 5 4 4 4 3 3 3 4 4
10 13 17 21 24 26 26 25 23 22 23 24 22 21 20 19 19 18 17 15 14 11 9 7 7 7 6 6 6 6 5 5 4 4 4 3 2 2 2 1 1 1 2 2
12 12 12 15 22 21 22 23 23 23 22 21 20 20 19 18 17 16 14 12 10 9 7 5 4 4 3 3 4 4 4 4 4 3 2 2 1 0 0 -0 0 0 0 0
8 11 12 14 19 20 20 19 21 22 21 20 19 18 18 16 14 12 10 9 8 6 5 4 3 3 2 2 3 4 3 3 3 2 1 1 1 0 0 0 -0 -1 -1 -0
10 12 11 9 20 18 19 18 19 19 19 19 19 17 15 13 11 9 7 6 5 4 4 3 3 2 2 2 2 2 3 2 1 1 1 1 0 1 1 1 -0 -0 -0 -1
11 11 8 7 17 18 19 19 18 18 18 17 15 13 10 9 7 6 5 5 4 3 3 2 1 0 -0 1 2 1 2 2 1 -0 -1 -1 -1 -0 0 0 -1 -1 -1 -0
8 7 6 12 18 19 18 17 15 15 13 11 9 7 6 5 5 4 4 3 3 3 3 3 2 1 0 1 1 1 1 1 1 0 0 -0 0 -0 -0 -0 0 1 1 1
8 8 7 18 18 16 15 13 11 9 8 6 5 4 4 3 3 3 3 2 2 2 2 1 -1 -1 -1 -1 0 1 1 0 -1 -1 -0 -0 1 0 0 -0 -1 -1 -0 0
8 15 17 16 14 13 12 10 7 6 4 3 3 3 2 2 2 2 2 2 1 -1 -2 -4 -4 -4 -3 -2 -1 -0 -1 -1 -2 -1 -0 -0 -1 -0 -0 -1 -1 -1 -0 -1
12 15 14 13 11 10 8 7 5 3 2 2 2 2 1 1 0 -1 -1 -2 -3 -3 -3 -5 -5 -5 -4 -4 -3 -2 -2 -2 -2 -1 -2 -2 -2 -2 -2 -1 -2 -2 -2 -2
14 11 10 9 7 5 4 3 2 2 1 1 1 0 -0 -0 -1 -2 -3 -3 -5 -5 -5 -6 -5 -4 -4 -5 -4 -2 -2 -3 -3 -3 -4 -5 -5 -4 -4 -4 -4 -4 -3 -3
8 7 6 4 3 2 1 1 1 0 -0 -0 -1 -1 -2 -3 -3 -4 -4 -3 -3 -3 -5 -5 -4 -4 -4 -6 -5 -3 -4 -4 -4 -5 -6 -6 -6 -5 -6 -6 -6 -5 -6 -6
3 2 2 1 1 1 -0 -1 -1 -1 -2 -2 -3 -3 -4 -4 -5 -5 -5 -5 -5 -5 -5 -6 -5 -4 -6 -5 -5 -5 -6 -6 -6 -7 -7 -7 -7 -7 -7 -7 -7 -7 -7 -8
1 0 -0 -1 -1 -2 -2 -2 -2 -2 -2 -2 -2 -3 -4 -4 -4 -3 -3 -4 -5 -6 -6 -7 -8 -7 -7 -6 -6 -6 -7 -7 -8 -8 -8 -8 -8 -8 -8 -9 -8 -8 -8 -8
0 -0 -1 -1 -2 -2 -2 -2 -2 -3 -4 -5 -6 -6 -6 -6 -6 -6 -5 -5 -6 -7 -6 -8 -9 -9 -8 -7 -8 -8 -8 -8 -9 -9 -9 -9 -9 -9 -9 -10 -10 -10 -10 -10
1 -0 -1 -1 -1 -1 -2 -4 -5 -5 -5 -5 -5 -3 -2 -2 -3 -4 -5 -7 -7 -8 -8 -11 -11 -10 -9 -9 -9 -9 -10 -10 -10 -10 -10 -10 -10 -10 -10 -11 -11 -11 -11 -11
1 1 0 -1 -2 -2 -2 -3 -3 -5 -6 -6 -5 -4 -4 -5 -6 -7 -9 -10 -11 -11 -11 -12 -11 -10 -10 -10 -10 -10 -10 -11 -11 -11 -11 -11 -11 -11 -11 -11 -12 -12 -12 -12
-1 -0 -0 0 0 -0 -2 -3 -3 -3 -4 -4 -4 -4 -4 -5 -6 -7 -9 -9 -9 -9 -10 -12 -11 -11 -10 -11 -11 -11 -11 -11 -12 -11 -11 -11 -12 -12 -12 -12 -13 -13 -13 -14
0 1 1 1 -0 -1 -1 -1 -2 -3 -3 -4 -5 -6 -7 -8 -8 -8 -9 -9 -9 -10 -10 -11 -11 -11 -11 -11 -11 -12 -12 -12 -12 -12 -12 -12 -13 -13 -13 -13 -14 -14 -15 -15
1 1 1 0 -0 -0 -0 -1 -2 -3 -4 -5 -6 -6 -7 -7 -8 -8 -9 -9 -10 -10 -11 -12 -12 -12 -12 -12 -12 -12 -12 -12 -13 -13 -13 -13 -13 -14 -14 -15 -15 -16 -16 -17

GFSNGP_925_temp_258.txt.gz
Temp
15 16 16 17 19 22 23 23 21 22 24 26 26 29 29 29 28 27 27 26 25 23 22 22 20 20 19 18 18 17 17 16 15 16 15 15 15 14 14 14 13 13 13 13
13 15 16 13 15 17 21 24 25 25 25 27 27 27 29 30 27 27 25 25 25 24 23 22 21 19 19 17 17 17 16 16 15 15 15 14 14 13 12 12 12 11 10 9
12 15 14 13 17 19 21 24 24 22 24 27 26 27 28 26 27 27 26 26 24 23 22 20 19 18 18 17 16 16 15 15 14 14 14 13 13 12 11 11 9 8 7 6
11 12 10 16 19 19 17 18 24 25 26 26 27 27 26 24 27 28 26 25 23 21 19 19 18 18 17 16 15 14 14 13 13 12 12 11 11 10 9 8 6 5 5 5
10 11 13 14 16 17 20 18 23 24 25 26 27 26 24 24 25 27 24 23 21 19 18 17 16 16 15 14 13 13 12 11 11 11 11 10 9 8 7 6 4 4 4 4
11 10 11 16 19 22 18 16 22 25 24 24 25 23 24 24 23 23 22 20 19 17 16 15 14 14 13 12 11 11 10 10 9 9 8 7 6 6 5 5 5 4 4 3
12 11 13 16 17 18 15 16 18 18 20 23 23 25 23 21 20 21 20 19 17 15 14 13 13 11 9 9 9 9 8 8 6 6 6 5 5 4 4 4 3 3 3 4
12 11 10 17 18 16 16 13 14 13 15 22 22 22 20 20 19 19 17 16 14 12 10 10 10 9 8 8 8 7 6 5 5 4 4 4 3 2 2 1 1 1 1 1
12 12 15 16 15 16 17 15 15 11 12 21 20 19 19 18 17 17 16 14 11 9 7 7 6 6 6 6 6 5 5 5 4 3 3 2 1 1 0 -0 -0 0 0 -0
11 12 12 14 14 13 14 14 10 12 10 21 18 19 18 17 17 15 14 12 9 7 6 5 4 4 4 4 5 5 5 4 4 2 2 2 1 0 0 0 -0 -0 -0 -0
10 12 13 13 14 15 14 12 10 9 17 21 19 18 16 15 12 11 10 8 7 6 5 4 4 3 3 3 4 4 4 3 1 1 1 1 -0 -0 1 1 -0 -1 -1 -1
9 12 12 12 13 13 12 10 9 9 19 19 18 16 13 11 10 8 7 5 5 4 4 3 2 2 2 3 3 3 3 3 1 0 -0 -0 -0 -0 -0 0 -0 -0 0 0
11 12 12 12 13 11 10 9 8 7 17 15 13 11 9 8 7 6 5 4 4 3 3 2 1 1 1 2 2 1 2 2 0 0 0 0 0 -0 0 0 0 0 0 -1
12 11 10 11 10 10 9 9 7 11 12 10 8 7 5 5 3 3 2 2 3 4 3 2 1 -0 -0 0 1 1 1 -0 -1 -1 -1 -0 -0 -0 -0 -0 -1 -1 -1 -0
11 11 11 11 10 8 7 6 10 9 7 6 5 4 3 2 1 1 2 3 2 1 -0 -2 -2 -2 -2 -1 0 0 -0 -2 -2 -1 -1 -2 -2 -2 -2 -2 -2 -1 -1 -1
10 10 8 7 6 6 7 9 6 5 4 3 2 1 1 1 2 3 2 1 -1 -2 -4 -4 -4 -4 -4 -2 -1 -1 -1 -2 -2 -3 -3 -4 -4 -4 -4 -3 -3 -3 -3 -4
8 7 7 6 8 8 6 6 4 3 2 2 1 1 2 1 -0 -1 -2 -3 -3 -4 -4 -5 -4 -4 -5 -4 -2 -2 -3 -3 -3 -4 -4 -5 -5 -5 -5 -5 -5 -5 -5 -6
8 5 6 8 7 5 3 2 2 1 0 0 -0 -0 -0 -1 -2 -3 -4 -5 -5 -5 -5 -4 -4 -4 -5 -4 -3 -4 -4 -4 -5 -5 -6 -6 -6 -6 -6 -7 -7 -6 -7 -7
5 4 4 3 2 2 1 0 -0 -0 -1 -1 -1 -2 -3 -3 -3 -4 -4 -4 -4 -5 -5 -4 -4 -4 -5 -5 -4 -5 -5 -6 -6 -7 -7 -7 -8 -8 -8 -8 -8 -8 -8 -8
1 0 1 1 0 0 -0 -1 -1 -2 -2 -3 -3 -4 -4 -4 -5 -5 -5 -5 -5 -6 -6 -5 -5 -5 -5 -6 -6 -6 -7 -7 -8 -8 -8 -8 -9 -9 -9 -9 -9 -9 -9 -9
-0 -0 -1 -1 -1 -1 -2 -2 -2 -2 -3 -4 -4 -5 -5 -5 -4 -4 -4 -5 -5 -6 -7 -8 -7 -6 -6 -7 -7 -8 -8 -8 -9 -9 -9 -9 -10 -10 -10 -10 -10 -10 -11 -11
-1 -1 -1 -1 -1 -2 -2 -2 -3 -3 -4 -4 -5 -5 -5 -5 -5 -5 -5 -6 -6 -7 -8 -8 -8 -8 -8 -8 -9 -9 -9 -9 -10 -10 -10 -10 -10 -11 -11 -11 -11 -12 -12 -12
-0 -1 -1 -1 -2 -3 -4 -5 -5 -5 -5 -5 -4 -3 -3 -3 -4 -5 -6 -7 -8 -9 -9 -10 -9 -9 -9 -9 -10 -10 -10 -10 -10 -10 -11 -11 -11 -12 -12 -12 -12 -13 -13 -14
-0 -1 -2 -2 -2 -2 -2 -3 -4 -5 -4 -4 -4 -4 -5 -6 -7 -9 -9 -9 -10 -10 -10 -10 -10 -10 -10 -10 -10 -11 -11 -11 -11 -11 -11 -12 -12 -12 -13 -13 -14 -14 -15 -15
-0 -0 -0 -0 -1 -2 -3 -3 -3 -3 -3 -3 -3 -4 -5 -6 -7 -8 -8 -9 -9 -10 -10 -10 -10 -10 -11 -11 -11 -11 -11 -12 -12 -12 -12 -13 -13 -13 -14 -14 -15 -16 -16 -17
1 1 0 -0 -1 -2 -2 -2 -2 -3 -4 -5 -6 -6 -7 -8 -8 -8 -9 -9 -10 -10 -11 -11 -11 -11 -11 -11 -11 -12 -12 -13 -12 -13 -13 -13 -14 -15 -15 -16 -16 -16 -17 -17
1 0 0 -0 -1 -1 -1 -2 -2 -3 -4 -5 -6 -7 -7 -8 -8 -9 -9 -10 -10 -11 -11 -11 -12 -11 -12 -12 -12 -12 -13 -13 -13 -14 -14 -15 -15 -15 -16 -16 -17 -17 -17 -17

GFSNGP_925_temp_261.txt.gz
Temp
14 15 14 14 14 15 15 15 15 17 19 19 20 22 22 24 24 25 24 21 19 18 17 17 17 17 17 17 16 15 15 15 14 14 13 13 12 12 11 10 9 9 8 7
12 14 14 13 14 14 14 16 17 19 20 23 23 24 24 25 25 25 22 21 21 20 19 18 17 16 16 16 15 15 14 13 13 13 12 12 11 10 9 8 7 7 6 5
10 13 11 10 13 15 15 17 17 16 18 20 20 23 24 24 24 23 22 22 21 19 18 17 16 15 15 14 14 13 12 12 12 11 10 9 9 8 7 6 5 4 5 5
9 9 6 12 15 15 14 15 16 15 16 17 17 20 24 21 21 20 20 21 19 17 16 16 15 14 14 13 12 11 11 10 10 9 8 7 7 6 5 4 4 5 5 4
8 8 10 12 13 13 14 13 15 15 14 14 14 16 21 22 19 18 17 15 14 14 14 14 13 12 12 11 10 10 9 8 8 7 6 6 5 5 5 4 4 4 4 4
5 3 8 12 14 16 15 12 16 14 14 14 12 12 13 13 17 16 15 14 14 13 12 11 10 10 9 9 8 8 6 6 6 5 5 5 4 3 3 3 2 3 2 2
9 8 8 12 13 14 11 12 14 14 13 12 11 11 12 15 16 14 13 12 11 11 10 9 9 9 8 7 6 6 5 5 4 4 3 3 2 2 1 1 1 0 0 -0
7 8 7 14 14 12 13 12 11 12 12 11 11 11 12 14 15 13 12 10 9 8 7 7 7 6 6 5 5 5 4 4 3 3 2 1 1 0 0 -0 -0 -1 -0 -1
9 9 11 12 12 12 12 12 12 12 11 11 9 9 11 12 12 10 9 8 7 6 5 4 5 5 5 5 4 4 3 2 1 2 1 1 0 0 0 0 -1 -1 -1 -1
9 10 11 12 12 12 12 11 12 12 12 11 8 9 9 12 11 8 7 6 5 4 3 3 3 3 4 4 4 3 2 1 0 -0 -0 -1 -1 -1 -0 -0 -1 -1 -1 -1
8 10 10 11 11 11 11 11 11 11 11 10 9 9 9 10 8 7 6 4 4 3 3 3 3 3 3 3 3 2 1 0 0 -0 -0 -0 -1 -1 -1 -0 -0 -0 -0 -0
7 9 9 10 10 11 10 11 10 9 9 9 8 9 9 7 6 4 4 3 2 2 1 1 2 1 2 2 2 1 0 -1 -1 -1 -1 -1 -1 -1 -0 -1 -1 -1 -1 -1
8 10 9 9 10 10 10 10 10 8 9 8 7 7 6 4 4 3 3 2 1 1 1 -0 -1 -0 1 1 0 -1 -2 -2 -1 -1 -2 -3 -3 -3 -3 -3 -2 -2 -2 -3
10 10 9 10 10 10 10 9 9 8 8 8 3 4 3 3 2 2 2 2 1 -0 -1 -1 -2 -2 -0 -0 -1 -2 -2 -2 -3 -4 -4 -4 -4 -4 -4 -4 -5 -4 -4 -6
9 10 9 10 10 10 9 8 8 7 8 5 3 2 2 1 1 0 -1 -2 -2 -3 -3 -3 -4 -3 -1 -1 -2 -3 -3 -4 -4 -5 -5 -5 -6 -5 -5 -6 -6 -6 -6 -7
9 9 10 9 9 9 8 8 7 5 3 2 2 1 1 -0 -1 -2 -3 -3 -4 -4 -5 -5 -4 -3 -2 -3 -3 -4 -4 -5 -5 -6 -6 -7 -7 -7 -7 -7 -7 -7 -7 -8
8 8 8 8 8 7 7 7 6 2 1 1 -0 -1 -2 -3 -4 -4 -4 -5 -5 -5 -5 -5 -5 -4 -4 -4 -5 -5 -6 -6 -7 -7 -7 -8 -8 -8 -8 -8 -8 -8 -8 -9
7 4 4 5 6 4 2 1 1 0 -0 -1 -2 -3 -3 -3 -4 -5 -5 -5 -5 -5 -4 -5 -5 -5 -5 -5 -6 -6 -7 -7 -8 -8 -8 -9 -9 -9 -9 -9 -9 -10 -10 -10
2 1 1 2 1 1 0 -0 -1 -1 -2 -2 -3 -4 -4 -5 -5 -5 -5 -6 -6 -5 -5 -5 -5 -6 -6 -7 -7 -8 -8 -8 -9 -9 -9 -10 -10 -10 -11 -11 -11 -11 -11 -11
0 -0 -0 -0 -0 -1 -1 -2 -2 -3 -3 -4 -4 -5 -5 -6 -6 -6 -6 -7 -7 -7 -6 -6 -7 -7 -7 -8 -8 -9 -9 -10 -10 -10 -10 -11 -11 -11 -12 -12 -12 -12 -13 -13
-1 -1 -2 -2 -2 -2 -3 -3 -4 -4 -5 -4 -5 -5 -6 -6 -6 -6 -7 -7 -8 -8 -7 -8 -8 -8 -8 -9 -9 -10 -10 -10 -11 -11 -11 -12 -12 -12 -13 -13 -13 -14 -15 -15
-1 -1 -2 -2 -2 -3 -4 -4 -5 -5 -5 -6 -6 -6 -6 -6 -7 -7 -8 -9 -9 -9 -9 -9 -9 -9 -9 -10 -10 -10 -10 -11 -11 -11 -12 -12 -13 -13 -14 -14 -14 -15 -16 -16
-2 -2 -3 -3 -4 -4 -5 -5 -5 -5 -5 -5 -5 -5 -6 -6 -7 -8 -9 -9 -10 -9 -9 -9 -9 -10 -10 -10 -11 -11 -11 -11 -12 -12 -13 -13 -14 -14 -15 -15 -16 -16 -17 -17
-3 -3 -3 -3 -3 -4 -4 -4 -5 -5 -5 -6 -6 -6 -8 -9 -10 -10 -10 -10 -10 -10 -10 -10 -10 -10 -11 -11 -11 -12 -12 -12 -12 -13 -13 -14 -15 -15 -16 -16 -16 -17 -17 -17
-2 -2 -2 -3 -3 -4 -4 -4 -4 -4 -5 -6 -6 -7 -8 -9 -9 -10 -10 -10 -10 -10 -11 -11 -11 -11 -11 -12 -12 -12 -13 -13 -13 -14 -14 -15 -15 -16 -16 -16 -17 -17 -17 -17
-1 -2 -2 -3 -3 -3 -3 -3 -4 -6 -7 -7 -8 -9 -9 -9 -9 -10 -10 -10 -11 -11 -11 -11 -11 -11 -12 -12 -13 -13 -13 -14 -14 -15 -15 -15 -16 -16 -16 -17 -17 -17 -17 -17
-1 -2 -2 -2 -2 -3 -4 -4 -5 -6 -7 -8 -9 -9 -9 -9 -9 -10 -10 -11 -11 -11 -11 -12 -12 -12 -12 -13 -13 -14 -14 -15 -15 -16 -15 -16 -16 -17 -17 -17 -17 -17 -17 -17